Tracking 19817 objects as of 18-Aug-2019
HD Live streaming from Space Station
objects crossing your sky now

COSMOS 2251 DEB

Track COSMOS 2251 DEB now!
10-day predictions


NORAD ID: 34944
Int'l Code: 1993-036ADX
Perigee: 704.2 km
Apogee: 1,047.7 km
Inclination: 73.8 °
Period: 102.3 minutes
Semi major axis: 7246 km
RCS: 0.0137 m2 (small)
Launch date: June 16, 1993
Source: Commonwealth of Independent States (former USSR) (CIS)
Launch site: PLESETSK MISSILE AND SPACE COMPLEX (PKMTR)

Note: This is SATELLITE DEBRIS
aabbcc
Your satellite tracking list
Your tracking list is empty




NASA's NSSDC Master Catalog

Two Line Element Set (TLE):
1 34944U 93036ADX 19228.15451136 +.00000139 +00000-0 +77640-4 0  9994
2 34944 073.7636 045.1717 0236969 270.1018 087.2967 14.07249496316855
Source of the keplerian elements: AFSPC